This is the latest recevied weather packets stored in our database for station/object CW79215. If no packets are shown the sender has not sent any weather packets the latest 10 day(s).
| Time | Temp. | Humidity | Pressure | Rain* | Wind** | Luminosity | Snow |
|---|---|---|---|---|---|---|---|
| 1788618045 | 25.56° C | 44% | 1033.4 hPa | - | - | - | - |
| 1788617145 | 25° C | 46% | 1033.4 hPa | - | - | - | - |
| 1788616245 | 25° C | 47% | 1033.3 hPa | - | - | - | - |
| 1788615345 | 25° C | 47% | 1033.3 hPa | - | - | - | - |
| 1788614445 | 24.44° C | 49% | 1033.3 hPa | - | - | - | - |
| 1788613545 | 24.44° C | 48% | 1033.4 hPa | - | - | - | - |
| 1788612645 | 24.44° C | 45% | 1033.3 hPa | - | - | - | - |
| 1788611745 | 26.11° C | 43% | 1033.2 hPa | - | - | - | - |
| 1788610845 | 25.56° C | 44% | 1033.3 hPa | - | - | - | - |
| 1788609944 | 25° C | 45% | 1033.3 hPa | - | - | - | - |
| 1788609044 | 23.89° C | 47% | 1033.3 hPa | - | - | - | - |
| 1788608144 | 23.89° C | 49% | 1033.3 hPa | - | - | - | - |
| 1788607244 | 24.44° C | 49% | 1033.3 hPa | - | - | - | - |
| 1788606344 | 25.56° C | 45% | 1033.4 hPa | - | - | - | - |
| 1788605444 | 24.44° C | 46% | 1033.5 hPa | - | - | - | - |
| 1788604544 | 23.89° C | 50% | 1033.4 hPa | - | - | - | - |
| 1788603644 | 23.89° C | 48% | 1033.4 hPa | - | - | - | - |
| 1788602744 | 23.89° C | 50% | 1033.3 hPa | - | - | - | - |
| 1788601844 | 23.33° C | 57% | 1033.4 hPa | - | - | - | - |
| 1788600943 | 23.89° C | 59% | 1033.3 hPa | - | - | - | - |
| 1788600043 | 23.33° C | 60% | 1033.3 hPa | - | - | - | - |
| 1788599142 | 23.89° C | 54% | 1033.1 hPa | - | - | - | - |
| 1788598242 | 22.22° C | 61% | 1033.2 hPa | - | - | - | - |
| 1788597345 | 22.78° C | 59% | 1033 hPa | - | - | - | - |
| 1788596445 | 22.22° C | 61% | 1032.8 hPa | - | - | - | - |
* Rain since midnight (hover to see other rain measurements)
** Current wind speed in m/s (hover to see current wind gust speed)